When you browse on this site, cookies collect data to enhance your experience and personalize the content and advertising you see.
Visit our Privacy Policy to learn more. By continuing to use the site, you agree to this use of cookies and data.
  • In Hungary
  • List of Countries
  • For 7 days
  • Water Temperature
  • Weather Map
  • News
  • Weather Widgets
  • user-avatar
    Login

    Hourly Weather Agar

    Today, 7 December, Saturday

    Time Temperature Precipitation Wind Pressure Humidity
    00:00 +17°C° 0 mm 2 mps 719 mmHg 38%
    01:00 +17°C° 0 mm 2 mps 719 mmHg 39%
    02:00 +17°C° 0 mm 2 mps 718 mmHg 39%
    03:00 +16°C° 0 mm 2 mps 718 mmHg 40%
    04:00 +16°C° 0 mm 2 mps 718 mmHg 41%
    05:00 +16°C° 0 mm 2 mps 719 mmHg 44%
    06:00 +16°C° 0 mm 2 mps 719 mmHg 43%
    07:00 +17°C° 0 mm 3 mps 720 mmHg 42%
    08:00 +17°C° 0 mm 3 mps 720 mmHg 41%
    09:00 +19°C° 0 mm 3 mps 720 mmHg 38%
    10:00 +22°C° 0 mm 3 mps 720 mmHg 34%
    11:00 +25°C° 0 mm 3 mps 720 mmHg 29%
    12:00 +25°C° 0 mm 3 mps 719 mmHg 27%
    13:00 +26°C° 0 mm 3 mps 719 mmHg 24%
    14:00 +27°C° 0 mm 3 mps 718 mmHg 22%
    15:00 +26°C° 0 mm 2 mps 718 mmHg 24%
    16:00 +25°C° 0 mm 2 mps 718 mmHg 27%
    17:00 +23°C° 0 mm 2 mps 718 mmHg 29%
    18:00 +21°C° 0 mm 2 mps 718 mmHg 32%
    19:00 +20°C° 0 mm 2 mps 718 mmHg 34%
    20:00 +19°C° 0 mm 2 mps 718 mmHg 36%
    21:00 +18°C° 0 mm 2 mps 718 mmHg 38%
    22:00 +17°C° 0 mm 2 mps 718 mmHg 39%
    23:00 +17°C° 0 mm 2 mps 718 mmHg 40%

    Tomorrow, 8 December, Sunday

    Time Temperature Precipitation Wind Pressure Humidity
    00:00 +16°C° 0 mm 2 mps 718 mmHg 42%
    01:00 +16°C° 0 mm 2 mps 718 mmHg 45%
    02:00 +15°C° 0 mm 2 mps 718 mmHg 47%
    03:00 +15°C° 0 mm 2 mps 718 mmHg 49%
    04:00 +14°C° 0 mm 2 mps 718 mmHg 50%
    05:00 +14°C° 0 mm 2 mps 718 mmHg 52%
    06:00 +15°C° 0 mm 2 mps 719 mmHg 50%
    07:00 +16°C° 0 mm 2 mps 719 mmHg 48%
    08:00 +17°C° 0 mm 2 mps 720 mmHg 46%
    09:00 +19°C° 0 mm 2 mps 720 mmHg 41%
    10:00 +21°C° 0 mm 2 mps 720 mmHg 36%
    11:00 +25°C° 0 mm 2 mps 720 mmHg 30%
    12:00 +26°C° 0 mm 2 mps 719 mmHg 28%
    13:00 +27°C° 0 mm 2 mps 719 mmHg 26%
    14:00 +27°C° 0 mm 2 mps 718 mmHg 24%
    15:00 +26°C° 0 mm 2 mps 718 mmHg 26%
    16:00 +25°C° 0 mm 2 mps 718 mmHg 29%
    17:00 +24°C° 0 mm 1 mps 717 mmHg 31%
    18:00 +21°C° 0 mm 2 mps 718 mmHg 33%
    19:00 +20°C° 0 mm 2 mps 718 mmHg 35%
    20:00 +19°C° 0 mm 2 mps 719 mmHg 38%
    21:00 +19°C° 0 mm 2 mps 719 mmHg 40%
    22:00 +18°C° 0 mm 2 mps 719 mmHg 42%
    23:00 +17°C° 0 mm 2 mps 718 mmHg 44%

    Day after tomorrow, 9 December, Monday

    Time Temperature Precipitation Wind Pressure Humidity
    00:00 +17°C° 0 mm 2 mps 718 mmHg 46%
    01:00 +16°C° 0 mm 2 mps 718 mmHg 48%
    02:00 +16°C° 0 mm 2 mps 718 mmHg 50%
    03:00 +15°C° 0 mm 2 mps 718 mmHg 52%
    04:00 +15°C° 0 mm 2 mps 718 mmHg 53%
    05:00 +14°C° 0 mm 2 mps 718 mmHg 55%
    06:00 +15°C° 0 mm 2 mps 718 mmHg 54%
    07:00 +16°C° 0 mm 2 mps 719 mmHg 52%
    08:00 +17°C° 0 mm 2 mps 719 mmHg 51%
    09:00 +20°C° 0 mm 2 mps 720 mmHg 45%
    10:00 +23°C° 0 mm 2 mps 720 mmHg 39%
    11:00 +25°C° 0 mm 2 mps 720 mmHg 34%
    12:00 +26°C° 0 mm 2 mps 719 mmHg 30%
    13:00 +27°C° 0 mm 1 mps 719 mmHg 27%
    14:00 +28°C° 0 mm 1 mps 718 mmHg 24%
    15:00 +27°C° 0 mm 1 mps 718 mmHg 26%
    16:00 +25°C° 0 mm 2 mps 717 mmHg 28%
    17:00 +24°C° 0 mm 2 mps 717 mmHg 30%
    18:00 +23°C° 0 mm 2 mps 717 mmHg 33%
    19:00 +21°C° 0 mm 2 mps 718 mmHg 35%
    20:00 +19°C° 0 mm 2 mps 718 mmHg 37%
    21:00 +19°C° 0 mm 2 mps 718 mmHg 39%
    22:00 +18°C° 0 mm 2 mps 718 mmHg 41%
    23:00 +18°C° 0 mm 2 mps 717 mmHg 43%

    10 December, Tuesday

    Time Temperature Precipitation Wind Pressure Humidity
    00:00 +17°C° 0 mm 2 mps 717 mmHg 44%
    01:00 +17°C° 0 mm 2 mps 717 mmHg 46%
    02:00 +16°C° 0 mm 2 mps 717 mmHg 48%
    03:00 +16°C° 0 mm 2 mps 717 mmHg 50%
    04:00 +15°C° 0 mm 2 mps 717 mmHg 52%
    05:00 +15°C° 0 mm 1 mps 717 mmHg 54%
    06:00 +16°C° 0 mm 1 mps 717 mmHg 52%
    07:00 +17°C° 0 mm 2 mps 718 mmHg 50%
    08:00 +18°C° 0 mm 2 mps 718 mmHg 48%
    09:00 +20°C° 0 mm 2 mps 718 mmHg 43%
    10:00 +23°C° 0 mm 2 mps 718 mmHg 37%
    11:00 +25°C° 0 mm 2 mps 718 mmHg 31%
    12:00 +26°C° 0 mm 2 mps 718 mmHg 28%
    13:00 +27°C° 0 mm 1 mps 717 mmHg 25%
    14:00 +28°C° 0 mm 1 mps 716 mmHg 22%
    15:00 +27°C° 0 mm 1 mps 716 mmHg 24%
    16:00 +26°C° 0 mm 2 mps 716 mmHg 26%
    17:00 +24°C° 0 mm 2 mps 715 mmHg 28%
    18:00 +23°C° 0 mm 2 mps 715 mmHg 29%
    19:00 +21°C° 0 mm 2 mps 716 mmHg 31%
    20:00 +19°C° 0 mm 2 mps 716 mmHg 32%
    21:00 +19°C° 0 mm 2 mps 716 mmHg 33%
    22:00 +18°C° 0 mm 2 mps 716 mmHg 34%
    23:00 +18°C° 0 mm 2 mps 716 mmHg 35%

    11 December, Wednesday

    Time Temperature Precipitation Wind Pressure Humidity
    00:00 +18°C° 0 mm 1 mps 715 mmHg 37%
    01:00 +18°C° 0 mm 1 mps 715 mmHg 38%
    02:00 +16°C° 0 mm 1 mps 715 mmHg 40%
    03:00 +16°C° 0 mm 1 mps 715 mmHg 41%
    04:00 +15°C° 0 mm 1 mps 715 mmHg 42%
    05:00 +15°C° 0 mm 1 mps 715 mmHg 44%
    06:00 +16°C° 0 mm 1 mps 715 mmHg 42%
    07:00 +18°C° 0 mm 1 mps 716 mmHg 40%
    08:00 +20°C° 0 mm 1 mps 717 mmHg 38%
    09:00 +22°C° 0 mm 1 mps 717 mmHg 34%
    10:00 +24°C° 0 mm 1 mps 717 mmHg 29%
    11:00 +27°C° 0 mm 1 mps 717 mmHg 24%
    12:00 +28°C° 0 mm 1 mps 716 mmHg 23%
    13:00 +27°C° 0 mm 0 mps 716 mmHg 21%
    14:00 +27°C° 0 mm 0 mps 715 mmHg 19%
    15:00 +26°C° 0 mm 0 mps 715 mmHg 22%
    16:00 +27°C° 0 mm 1 mps 714 mmHg 24%
    17:00 +25°C° 0 mm 1 mps 714 mmHg 26%
    18:00 +24°C° 0 mm 2 mps 714 mmHg 28%
    19:00 +23°C° 0 mm 2 mps 715 mmHg 29%
    20:00 +20°C° 0 mm 2 mps 715 mmHg 31%
    21:00 +20°C° 0 mm 2 mps 715 mmHg 33%
    22:00 +19°C° 0 mm 2 mps 715 mmHg 35%
    23:00 +19°C° 0 mm 2 mps 715 mmHg 37%

    12 December, Thursday

    Time Temperature Precipitation Wind Pressure Humidity
    00:00 +19°C° 0 mm 2 mps 715 mmHg 40%
    01:00 +18°C° 0 mm 2 mps 714 mmHg 42%
    02:00 +18°C° 0 mm 2 mps 714 mmHg 45%
    03:00 +18°C° 0 mm 2 mps 714 mmHg 46%
    04:00 +17°C° 0 mm 2 mps 714 mmHg 47%
    05:00 +17°C° 0 mm 2 mps 714 mmHg 48%
    06:00 +18°C° 0 mm 3 mps 715 mmHg 46%
    07:00 +19°C° 0 mm 3 mps 715 mmHg 43%
    08:00 +20°C° 0 mm 3 mps 716 mmHg 41%
    09:00 +22°C° 0 mm 3 mps 716 mmHg 37%
    10:00 +26°C° 0 mm 3 mps 716 mmHg 32%
    11:00 +29°C° 0 mm 4 mps 716 mmHg 28%
    12:00 +29°C° 0 mm 4 mps 716 mmHg 28%
    13:00 +29°C° 0 mm 3 mps 715 mmHg 28%
    14:00 +30°C° 0 mm 3 mps 714 mmHg 29%
    15:00 +29°C° 0 mm 3 mps 714 mmHg 32%
    16:00 +27°C° 0 mm 2 mps 714 mmHg 35%
    17:00 +26°C° 0 mm 2 mps 714 mmHg 38%
    18:00 +26°C° 0 mm 2 mps 714 mmHg 39%
    19:00 +25°C° 0 mm 2 mps 714 mmHg 41%
    20:00 +24°C° 0 mm 2 mps 715 mmHg 42%
    21:00 +23°C° 0 mm 2 mps 715 mmHg 41%
    22:00 +21°C° 0 mm 2 mps 715 mmHg 40%
    23:00 +21°C° 0 mm 1 mps 715 mmHg 40%
    Show more